GAOFEN 3 DEB, 42678

Orbit data source: Space-Track

GAOFEN 3 DEB, 42678 is space debris in SSO originally from a launch on Tue, 09 Aug 2016 UTC launched from the Taiyaun Space Center, China (TSC). Debris objects in space refer to the collection of defunct objects orbiting the Earth. Examples of debris include non-operational satellites, rocket bodies, and fragments generated from explosions, collisions, or faulty payload assembly.

Loading next visibility...
Identifier
42678, 2016-049C
Orbit
SSO
Last TLE update
2 days ago
Origin
Manufacturer
Unknown
Mission
Spacecraft
Bus & Motor
Unknown
Mass
Unknown
Launch date (UTC)
2016-08-09 (9 years ago)
Launch vehicle
Unknown
Launch site
Taiyaun Space Center, China (TSC)
Object type
Payload
Rocket body
Debris
Shape & HBR
Unknown
Radar Cross Section
Small (<0.1 m²)

Expand to show TLE details & history

TLE from 2 days ago
0 GAOFEN 3 DEB
1 42678U 16049C   25180.27035290  .00000105  00000-0  41271-4 0  9996
2 42678  98.3233 192.9954 0008348 354.9263   5.1843 14.46543257462892
Epoch: 2025-06-29T06:29Z
TLE epoch observation values (Epoch: 2025-06-29T06:29:18.49Z)
Latitude
-0.00006°
Longitude
178.07145°
Altitude
734.007 km
Speed
7.491 km/s
True Right ascension
12h 51m 58s
True Declination
0° 00' 00"
Sunlit
Object was in daylight at epoch
Visualization orbit readout
Latitude
55.60998°
Longitude
12.40783°
Altitude
750.393 km
Speed
7.483 km/s
Apparent Right ascension
05h 35m 55s
Apparent Declination
17° 12' 45"
Sunlit
Object is in daylight
Visualization observer readout
Local Sidereal Time
20:29:49
Azimuth
44.371° NE
Elevation
-19.987°
Doppler factor
1
Orbital elements
Apogee altitude
740.003 km
Perigee altitude
728.129 km
Semi-major axis
7,112.203 km
Eccentricity
0.00083
Inclination
98.3233°
RAAN
192.9954°
Arg. of periapsis
354.9263°
True anomaly
Unknown
Mean anomaly
5.1843°
Eccentric anomaly
Unknown
Mean motion
3.61857 °/min
Orbital period
99.49 mins
BSTAR
0.000041271
Loading maneuver chart data...
Loading SW <> Apogee altitude chart data...
Loading historical data...
Loading historical data...
Loading historical data...
Loading historical data...
Loading historical data...
Loading historical data...
Loading historical data...
Other satellites on launch #49 in the year 2016 (2016-08-09 UTC)

GAOFEN 3 DEB Visibility forecast

Observer location: undefined°, undefined°

Span
Click to sort rows by Start time (UTC) header in descending order
Start Az.
Max El. time (UTC)
Max El. Az.
Max El.
End time (UTC)
End Az.
9 mins2025-07-01 13:50:37.753Z10.586° NNE2025-07-01 13:54:37.753Z321.499° NNW44.51°2025-07-01 13:59:37.753Z198.063° SSW
7 mins2025-07-02 01:01:37.753Z177.91° S2025-07-02 01:04:37.753Z266.347° W43.401°2025-07-02 01:08:37.753Z341.092° N
|